Lid_Strength_Index
6 6 6 7 7 7 6 5 5 4 3 3 3 3 4 6 6 7 7 7 7 8
6 6 6 7 7 6 7 7 7 5 3 2 2 3 3 4 5 5 6 6 7 7
8 7 6 6 6 7 7 7 7 7 6 6 5 4 3 3 4 5 6 6 6 7
8 8 8 7 7 7 7 8 8 8 8 7 7 7 5 5 5 5 6 6 7 7
8 8 8 8 8 8 8 8 8 9 8 7 7 6 6 6 6 6 7 7 8 8
10 10 10 9 9 9 9 10 10 10 10 8 7 7 7 6 6 6 6 7 8 8
10 10 10 10 10 10 10 10 11 11 11 10 9 9 9 9 8 7 7 8 8 8
11 11 11 12 12 12 12 12 12 12 12 12 11 10 10 11 9 10 9 10 10 10
14 13 13 13 13 12 12 12 13 13 13 13 12 10 9 10 11 11 11 11 12 12
14 13 13 13 13 13 13 12 13 13 14 13 13 10 9 10 12 12 12 12 13 14
13 13 13 13 14 13 14 14 14 14 14 14 14 11 10 10 12 13 13 13 13 13
13 14 14 14 14 14 16 16 16 16 16 15 12 11 11 11 12 12 13 13 13 13
13 14 14 13 13 14 15 14 14 13 13 13 13 12 11 11 12 13 14 14 14 14
14 14 14 13 13 12 13 13 13 14 13 14 14 13 12 11 12 13 15 15 14 14